"Pseudo-MPEC" for C5QPCV2

Created 2021 Jun 17 5:07:13 UT using Find_Orb

Click here for an explanation of pseudo-MPECs

 
 Astrometry: 
     C5QPCV2  C2021 05 11.42282 20 57 48.24 -08 29 08.2    ~69G7       VNEOCPG96
     C5QPCV2  C2021 05 11.42950 20 57 48.78 -08 29 00.0    ~69G7       VNEOCPG96
     C5QPCV2  C2021 05 11.43617 20 57 49.20 -08 28 52.9    ~69G7 21.0 GVNEOCPG96
     C5QPCV2  C2021 05 13n;!kaNxUA%r6ndKQ2:1!$L.7nQcvC2@7'A\BJ[xk:p[.5`9!TJV2F51
     C5QPCV2  C2021 05 13vJEo3u9y;*[7g#a!,LA$;'=6AMHqkLa:7m-*NDKR_'-Ew3f!NGrEF51
     C5QPCV2  C2021 05 1379r`1cf'Js$tcH$4T=pbmO(oX)A#A[OAstrometry[FlG'qNuZ^JF51
     C5QPCV2  C2021 06 08.39571421 27 26.88 +01 28 31.7    ~68EM 20.31GVNEOCPG96
     C5QPCV2  C2021 06 08.40152921 27 27.16 +01 28 39.4    ~68EM 20.72GVNEOCPG96
     C5QPCV2  C2021 06 08.40735221 27 27.40 +01 28 47.9    ~68EM 20.34GVNEOCPG96
     C5QPCV2  C2021 06 08.41317421 27 27.66 +01 28 55.5    ~68EM 20.09GVNEOCPG96
     C5QPCV2  C2021 06 08.44062721 27 28.87 +01 29 33.4    ~68EM 20.83GVNEOCPG96
     C5QPCV2  C2021 06 08.44655221 27 29.10 +01 29 41.4    ~68EM 20.50GVNEOCPG96
     C5QPCV2  C2021 06 08.45221221 27 29.37 +01 29 49.2    ~68EM       VNEOCPG96
     C5QPCV2  C2021 06 08.45791121 27 29.62 +01 29 56.6    ~68EM 20.80GVNEOCPG96
     C5QPCV2 bC2021 06 09^MY!CO=6Xy_6)[redacted;m$pv_i`C`4x[6Xt;q!NLx#Dh5C(LcL01
     C5QPCV2 bC2021 06 09s*YpCO_*LEJZ/].$.c,Zac$PxH2$(uclickx3.nV]-`/,Y4fBKOYL01
     C5QPCV2 bC2021 06 098,9Ir*GtpLk$5yLF6Y`yes3+;^Zo=MU1'$)eL#[R%VoY(;o;!nu\L01
     C5QPCV2 HC2021 06 09.40349 21 28 12.32 +01 51 37.5    ~69B7 20.6 RoNEOCP691
     C5QPCV2 HC2021 06 09.41750 21 28 12.83 +01 51 55.9    ~69B7 20.0 RoNEOCP691
     C5QPCV2 HC2021 06 09.43150 21 28 13.47 +01 52 15.5    ~69B7 20.9 RoNEOCP691
     C5QPCV2 2C2021 06 11ej@`8M;#.t`sFcTRB4bkmj`b_0?kl*[g*u%1k\?eBle_q[4YM'I3Z84
     C5QPCV2 2C2021 06 11ib)T'tF103p+l[PNUoJG4/H+E6drg_aOi;VcbBsOlYvMcJ\YO^G8Z84
     C5QPCV2 2C2021 06 11,S]vqU:_oVh8qy!3uO=gb9nK=Q^l5,+u9hq0xfIGB8_9k:'fCDS+Z84
     C5QPCV2 1C2021 06 13]!WRomAURnth%LT(svtXieMpQpn^Q:3Rl\yh8+*,%LeRZn%Vh^TeQ62
     C5QPCV2 1C2021 06 13J_[?x]p8J^-ULE:1Qt]=Le+NSi(aTSGjLE'v7RSu9bH^#3iwJ`#BQ62
     C5QPCV2 KC2021 06 14%.qYRS@``AP2@X/WdbS#$U;'B^Xly[5$D`7P9X6TyAf@SOQqk^NpL06
     C5QPCV2 KC2021 06 14miQ5'0(ZEq9iWPsJb0$+E\^tgUfL)6?Lg/-w7BCb[f?1`CtJH6UmL06
     C5QPCV2 KC2021 06 14LmAm-?_C9e1HLb9n_!OL@;f=i6eYE2_8TRn;rS9er$3DfL9LMBRG587
     C5QPCV2 KC2021 06 14]dT*_SxEJQ9f#Fhere%h)!bI'UuTxM!5EeSoU,fTQ6+DVbj5P.r+587
     C5QPCV2 KC2021 06 15KB2q@$EAnD`0x0?*vs\fXwtK2$Y+/*'u1x;iw\]BwG@-AJ]:`#MAL27
     C5QPCV2 KC2021 06 15!l3%r50y1uwucVq:W7!x;^ma@wbuiO!HforG72Faw(LE6C9mZ:lvL27
     C5QPCV2 KC2021 06 15x_R:YOVTr+V@,GS,#:)_t0_0SxX49Jdkcp_BE;Pq`7,aDl9P$g`=L27
     C5QPCV2 KC2021 06 16x9;0'.ZETCexplanation;9?:UI1/0#pq!b6:8n(R1ZlDMi$sC!hL27
     C5QPCV2 KC2021 06 166t)kC:U-=KYs3I3=oX()$bM,Q+%N`meZv0Xkeeb6D[$mI*dFu/)'L27

Station data:
(587) Sormano  (N45.882949 E9.229180)  Italy.  Observers F. Manca, A. Testa.
   Measurer F. Manca. 0.5-m + CCD.
(691) Steward Observatory, Kitt Peak - Spacewatch  (N31.962174 W111.600327)
   US/Arizona.  Observer J. V. Scotti. 0.9-m f/3 reflector + CCD.
(F51) Pan-STARRS 1, Haleakala  (N20.707235 W156.255910)  US/Hawaii.
   Observers N. Primak, A. Schultz, S. Watters, J. Thiel, T. Goggia. Measurer
   PS1 Science Consortium. 1.8-m Ritchey-Chrétien + CCD.
(G96) Mt. Lemmon Survey  (N32.442754 W110.788720)  US/Arizona.  Observers T.
   A. Pruyne, B. M. Africano, E. J. Christensen, G. A. Farneth, D. C. Fuls,
   A. R. Gibbs, A. D. Grauer, H. Gröller, J. A. Johnson, R. A. Kowalski, S.
   M. Larson, G. J. Leonard, D. Rankin, R. L. Seaman, F. C. Shelly. 1.5-m
   reflector + 10K CCD.
(L01) Višnjan Observatory, Tičan  (N45.290900 E13.749300)  Croatia.
   Observers K. Korlević, E. Pettarin. Measurer E. Pettarin. 1.0-m f/2.9
   reflector + CCD.
(L06) Sormano 2 Observatory, Bellagio Via Lattea  (N45.970103 E9.254030)
   Italy.
(L27) 29PREMOTE Observatory, Dauban  (N43.999847 E5.647040)  France.
(Q62) iTelescope Observatory, Siding Spring  (S31.273289 E149.064420)
   Australia/NSW. 0.50-m f/6.8 astrograph + CCD + focal reducer, 0.70-m f/6.6
   astrograph + CCD.
(Z84) Calar Alto-Schmidt  (N37.224049 W2.548210)  Spain.  Observer E. Schwab.
   Measurers E. Schwab, D. Koschny, M. Micheli. 0.8-m f/3 Schmidt + CCD.

Orbital elements:  C5QPCV2
   Perihelion 2021 Jul 24.532691 +/- 0.0480759 TT = 12:47:04 (JD 2459420.032691)
Epoch 2021 Jun 16.0 TT = JDT 2459381.5   Earth MOID: 0.9921   Ju: 0.4315
M 355.34370033 +/- 0.0131401        (J2000 ecliptic)          AutoNEOCP
n   0.12084024 +/- 0.000208189      Peri.   51.53053 +/- 0.0229258
a   4.05192744 +/- 0.00465346       Node   266.67684 +/- 0.0057346
e   0.5215786 +/- 0.000482119       Incl.   21.06918 +/- 0.0028467
P   8.16                   H 17.4   G  0.15   U  7.1  
q 1.93852865 +/- 0.000275934    Q 6.16532623 +/- 0.00906252
From 34 observations 2021 May 11-June 16; mean residual 0".44
Residuals in arcseconds: 
210511 G96  .19+  .28-    210608 G96  .13-  .01+    210613 Q62  .21-  .11+    
210511 G96  .49+  .12+    210608 G96  .10-  .42-    210614 L06  .91+  .90+    
210511 G96  .98-  .57-    210609 L01  .46+  .52+    210614 L06  .92+  .27+    
210513 F51  .16+  .37+    210609 L01  .75+  .20-    210614 587  .15-  .45-    
210513 F51  .05+  .30+    210609 L01  .62-  .62-    210614 587  .18-  .29-    
210513 F51  .18+  .16+    210609 691  .56+  .33+    210615 L27  .62+  .88-    
210608 G96  .50-  .09+    210609 691  .67-  .57-    210615 L27  .11+  .24-    
210608 G96  .13-  .19-    210609 691  .08+  .25-    210615 L27  .13-  .23+    
210608 G96  .35-  .31+    210611 Z84  .05-  .14+    210616 L27  1.5-  .36+    
210608 G96  .27-  .08-    210611 Z84  .10+  .26+    210616 L27  .02+  .37-    
210608 G96  .08-  .12+    210611 Z84  .02-  .18+    
210608 G96  .49-  .02-    210613 Q62  .12-  .30+    

Ephemerides (geocentric):
Date (UTC) HH   RA              Dec         delta   r     elong  mag " sig PA
---- -- -- --  -------------   -----------  ------ ------ -----  --- ---- ---
2021 06 17 05  21 33 11.771   +04 52 20.76  1.2842 1.9668 117.1 20.7 .253 124
2021 06 17 06  21 33 13.118   +04 53 18.98  1.2838 1.9667 117.1 20.7 .255 124
2021 06 17 07  21 33 14.461   +04 54 17.20  1.2835 1.9667 117.1 20.7 .258 124
2021 06 17 08  21 33 15.802   +04 55 15.42  1.2831 1.9666 117.1 20.7 .260 124
2021 06 17 09  21 33 17.140   +04 56 13.64  1.2828 1.9666 117.2 20.7 .263 124
2021 06 17 10  21 33 18.476   +04 57 11.87  1.2824 1.9665 117.2 20.7 .266 124
2021 06 17 11  21 33 19.808   +04 58 10.10  1.2821 1.9664 117.2 20.7 .268 124
2021 06 17 12  21 33 21.138   +04 59 08.32  1.2817 1.9664 117.2 20.7 .271 124
2021 06 17 13  21 33 22.465   +05 00 06.56  1.2814 1.9663 117.3 20.7 .273 124
2021 06 17 14  21 33 23.790   +05 01 04.79  1.2810 1.9662 117.3 20.7 .276 124
2021 06 17 15  21 33 25.111   +05 02 03.02  1.2806 1.9662 117.3 20.7 .279 124
2021 06 17 16  21 33 26.430   +05 03 01.26  1.2803 1.9661 117.3 20.7 .281 124
2021 06 17 17  21 33 27.746   +05 03 59.49  1.2799 1.9661 117.4 20.7 .284 124
2021 06 17 18  21 33 29.060   +05 04 57.73  1.2796 1.9660 117.4 20.7 .287 124
2021 06 17 19  21 33 30.370   +05 05 55.97  1.2792 1.9659 117.4 20.7 .289 124
2021 06 17 20  21 33 31.678   +05 06 54.21  1.2789 1.9659 117.4 20.7 .292 124
2021 06 17 21  21 33 32.983   +05 07 52.46  1.2785 1.9658 117.4 20.7 .295 124
2021 06 17 22  21 33 34.285   +05 08 50.70  1.2782 1.9658 117.5 20.7 .298 124
2021 06 17 23  21 33 35.585   +05 09 48.95  1.2778 1.9657 117.5 20.7 .300 124
2021 06 18 00  21 33 36.881   +05 10 47.19  1.2775 1.9656 117.5 20.7 .303 124
2021 06 18 01  21 33 38.175   +05 11 45.44  1.2771 1.9656 117.5 20.7 .306 124
2021 06 18 02  21 33 39.466   +05 12 43.69  1.2768 1.9655 117.6 20.7 .308 124
2021 06 18 03  21 33 40.755   +05 13 41.94  1.2764 1.9655 117.6 20.7 .311 124
2021 06 18 04  21 33 42.040   +05 14 40.20  1.2761 1.9654 117.6 20.7 .314 124
2021 06 18 05  21 33 43.323   +05 15 38.45  1.2757 1.9653 117.6 20.7 .317 124
2021 06 18 06  21 33 44.603   +05 16 36.70  1.2754 1.9653 117.7 20.7 .319 124
2021 06 18 07  21 33 45.881   +05 17 34.96  1.2750 1.9652 117.7 20.7 .322 124
2021 06 18 08  21 33 47.155   +05 18 33.22  1.2747 1.9651 117.7 20.7 .325 124
2021 06 18 09  21 33 48.427   +05 19 31.48  1.2743 1.9651 117.7 20.7 .328 124
2021 06 18 10  21 33 49.696   +05 20 29.73  1.2740 1.9650 117.8 20.6 .331 124
2021 06 18 11  21 33 50.962   +05 21 28.00  1.2736 1.9650 117.8 20.6 .333 124
2021 06 18 12  21 33 52.225   +05 22 26.26  1.2733 1.9649 117.8 20.6 .336 124
2021 06 18 13  21 33 53.486   +05 23 24.52  1.2729 1.9648 117.8 20.6 .339 124
2021 06 18 14  21 33 54.744   +05 24 22.78  1.2726 1.9648 117.9 20.6 .342 124
2021 06 18 15  21 33 55.999   +05 25 21.05  1.2722 1.9647 117.9 20.6 .345 124
2021 06 18 16  21 33 57.251   +05 26 19.31  1.2719 1.9647 117.9 20.6 .348 124
2021 06 18 17  21 33 58.501   +05 27 17.58  1.2715 1.9646 117.9 20.6 .350 124
2021 06 18 18  21 33 59.748   +05 28 15.85  1.2712 1.9645 118.0 20.6 .353 124
2021 06 18 19  21 34 00.991   +05 29 14.11  1.2708 1.9645 118.0 20.6 .356 124
2021 06 18 20  21 34 02.233   +05 30 12.38  1.2705 1.9644 118.0 20.6 .359 124
2021 06 18 21  21 34 03.471   +05 31 10.65  1.2701 1.9644 118.0 20.6 .362 124
2021 06 18 22  21 34 04.707   +05 32 08.92  1.2698 1.9643 118.1 20.6 .365 124
2021 06 18 23  21 34 05.939   +05 33 07.19  1.2694 1.9642 118.1 20.6 .368 124
2021 06 19 00  21 34 07.169   +05 34 05.46  1.2691 1.9642 118.1 20.6 .371 124
2021 06 19 01  21 34 08.396   +05 35 03.74  1.2687 1.9641 118.1 20.6 .374 124
2021 06 19 02  21 34 09.621   +05 36 02.01  1.2684 1.9641 118.2 20.6 .376 124
2021 06 19 03  21 34 10.842   +05 37 00.28  1.2680 1.9640 118.2 20.6 .379 124
2021 06 19 04  21 34 12.061   +05 37 58.55  1.2677 1.9639 118.2 20.6 .382 124